Baker Lake,

10:48 PM CDT on May 25, 2017 (GMT -0500)
Baker Lake

Weather History for CYBK - November, 2012

Change the Weather History Date:

Monday, November 5, 2012

  Actual Average Record
Temperature  
Mean Temperature 8 °F -  
Max Temperature 14 °F -1 °F 32 °F (2001)
Min Temperature 3 °F -14 °F -14 °F (2002)
Degree Days  
Heating Degree Days 56    
Moisture  
Dew Point 10 °F    
Average Humidity 88    
Maximum Humidity 100    
Minimum Humidity 78    
Precipitation  
Precipitation 0.04 in 0.02 in - ()
Sea Level Pressure  
Sea Level Pressure 29.88 in    
Wind  
Wind Speed 12 mph ()    
Max Wind Speed 23 mph    
Max Gust Speed 26 mph    
Visibility 15.4 miles    
Events Snow    
Averages and records for this station are not official NWS values.
T = Trace of Precipitation, MM = Missing Value Source: Averaged Metar Reports

Daily Weather History Graph

Daily Weather History Graph

Search for Another Location

Airport or City:

Trip Planner

Search our weather history database for the weather conditions in past years. The results will help you decide how hot, cold, wet, or windy it might be!

Date:

Astronomy

Nov. 05, 2012 Rise Set
Actual Time 8:23 AM CST 3:51 PM CST
Civil Twilight 7:27 AM CST 4:46 PM CST
Nautical Twilight 6:29 AM CST 5:45 PM CST
Astronomical Twilight 5:33 AM CST 6:41 PM CST
Moon 9:32 PM CST (11/5) 1:47 PM CST (11/5)
Length of Visible Light 9h 19m
Length of Day
7h 27m
Waning Gibbous, 62% of the Moon is Illuminated
Nov 5
Waning Gibbous
Nov 6
Last Quarter
Nov 13
New
Nov 20
First Quarter
Nov 28
Full

Hourly Weather History & Observations

Time (CST) Temp. Windchill Dew Point Humidity Pressure Visibility Wind Dir Wind Speed Gust Speed Precip Events Conditions
12:00 AM 23 °F - 22 °F 94% 29.79 in 3 mi SW 9.2 mph - - Snow Light Snow
12:00 AM 23.0 °F 13.1 °F 21.2 °F 93% 29.79 in 3.0 mi SW 9.2 mph - N/A Snow Light Snow
1:00 AM 23.0 °F - 23.0 °F 100% 29.79 in 3.0 mi Calm Calm - N/A Snow Light Snow
2:00 AM 23.0 °F 14.7 °F 21.2 °F 93% 29.79 in 10.0 mi NW 6.9 mph - N/A Snow Light Snow
3:00 AM 23.0 °F 10.6 °F 21.2 °F 93% 29.78 in 15.0 mi NW 13.8 mph - N/A Snow Light Snow
4:00 AM 19.4 °F 3.2 °F 17.6 °F 93% 29.78 in 15.0 mi NNW 20.7 mph - N/A Snow Light Snow
5:00 AM 17.6 °F 2.2 °F 15.8 °F 93% 29.80 in 15.0 mi North 17.3 mph - N/A Snow Light Snow
6:00 AM 13 °F - 11 °F 86% 29.81 in 15 mi NNW 23.0 mph - - Snow Light Snow
6:00 AM 14.0 °F -3.9 °F 10.4 °F 86% 29.81 in 15.0 mi NNW 20.7 mph 26.5 mph N/A Snow Light Snow
7:00 AM 14.0 °F -2.5 °F 10.4 °F 86% 29.82 in 15.0 mi NNW 17.3 mph - N/A Snow Light Snow
8:00 AM 15.8 °F 2.7 °F 14.0 °F 93% 29.85 in 20.0 mi North 11.5 mph 17.3 mph N/A Snow Light Snow
8:46 AM - - - N/A% - 20.0 mi NNW 12.7 mph - N/A   Mostly Cloudy
9:00 AM 14.0 °F -0.2 °F 12.2 °F 93% 29.86 in 20.0 mi NNW 12.7 mph - N/A   Mostly Cloudy
10:00 AM 15.8 °F -0.6 °F 12.2 °F 86% 29.86 in 20.0 mi North 18.4 mph - N/A   Mostly Cloudy
11:00 AM 14.0 °F -3.0 °F 10.4 °F 86% 29.86 in 20.0 mi North 18.4 mph - N/A   Mostly Cloudy
12:00 PM 11 °F - 8 °F 80% 29.87 in 19 mi North 16.1 mph - -   Partly Cloudy
12:00 PM 10.4 °F -6.6 °F 8.6 °F 92% 29.87 in 20.0 mi North 16.1 mph - N/A   Mostly Cloudy
1:00 PM 10.4 °F -3.3 °F 6.8 °F 85% 29.88 in 20.0 mi North 10.4 mph - N/A   Mostly Cloudy
2:00 PM 8.6 °F -9.5 °F 5.0 °F 85% 29.90 in 20.0 mi NNW 17.3 mph - N/A   Scattered Clouds
3:00 PM 8.6 °F -8.9 °F 5.0 °F 85% 29.91 in 20.0 mi NNW 16.1 mph - N/A   Mostly Cloudy
4:00 PM 6.8 °F -10.0 °F 3.2 °F 85% 29.92 in 20.0 mi North 13.8 mph - N/A   Mostly Cloudy
5:00 PM 6.8 °F -10.7 °F 3.2 °F 85% 29.94 in 15.0 mi North 15.0 mph 21.9 mph N/A   Overcast
6:00 PM 4 °F - 1 °F 79% 29.96 in 15 mi North 19.6 mph - -   Partly Cloudy
6:00 PM 5.0 °F -13.6 °F 1.4 °F 85% 29.96 in 15.0 mi North 16.1 mph 21.9 mph N/A   Mostly Cloudy
7:00 PM 3.2 °F -15.3 °F 1.4 °F 92% 29.96 in 15.0 mi North 15.0 mph 23.0 mph N/A   Scattered Clouds
8:00 PM 5.0 °F -13.6 °F 1.4 °F 85% 29.97 in 15.0 mi North 16.1 mph 23.0 mph N/A Snow Low Drifting Snow
9:00 PM 5.0 °F -13.0 °F -0.4 °F 78% 29.98 in 15.0 mi North 15.0 mph 23.0 mph N/A Snow Low Drifting Snow
10:00 PM 5.0 °F -13.0 °F -0.4 °F 78% 29.99 in 15.0 mi NNE 15.0 mph 24.2 mph N/A Snow Low Drifting Snow
11:00 PM 5.0 °F -10.8 °F 1.4 °F 85% 30.01 in 15.0 mi NNE 11.5 mph 23.0 mph N/A Snow Low Drifting Snow